Location: Haulchin
(50.3172°N, 3.4360°E)
Time: 03:45:30
(UTC+00:00)

CZ-2D R/B - Pass Details

Date: 23 May 2024
Orbit: 790 x 843 km, 98.8° (Epoch: 17 June)

Event Time Altitude Azimuth Distance (km) Brightness Sun altitude
Rises 00:10:52 0° 30° (NNE) 3,412 6.6 -18.8°
Reaches altitude 10° 00:14:44 10° 57° (ENE) 2,466 5.2 -18.7°
Maximum altitude 00:17:13 13° 85° (E) 2,242 4.6 -18.6°
Drops below altitude 10° 00:19:41 10° 112° (ESE) 2,448 4.5 -18.6°
Enters shadow 00:21:26 - 127° (SE) 2,812 4.7 -18.5°
